Date String (YYYY-MM-DD hh:mm:ss) UTC,Instrument flags,Ambient pressure (hPa),Sample flow (lpm),Bypass flow (lpm),Sample temperature (°C),Ambient temperature (°C),ASC tube jacket temperature (°C),LED temperature (°C),Box temperature (°C),Sample RH (%),Span deviation,Mass concentration (μg/m³),Mass concentration (μg/m³),Mass concentration (μg/m³)
DateTimeUTC,F1_M11,P_M11,Q1_M11,Q2_M11,T1_M11,T2_M11,T3_M11,T4_M11,T5_M11,U1_M11,ZSPAN_M11,X0_M11,X2_M11,X1_M11
2022-02-20 12:00:00,,0818.8,4.99,0.00,22.5,22.8,00.0,31.3,24.4,05.6,0000.0,0001.19,0000.55,0000.41
2022-02-20 12:01:00,,0818.9,5.00,0.00,22.5,22.6,00.0,31.3,24.3,05.5,0000.0,0001.24,0000.57,0000.42
2022-02-20 12:02:00,,0818.9,5.00,0.00,22.4,22.3,00.0,31.3,24.2,05.3,0000.0,0001.23,0000.57,0000.42
2022-02-20 12:03:00,,0818.9,5.01,0.00,22.4,22.1,00.0,31.3,24.1,05.4,0000.0,0001.27,0000.58,0000.42
2022-02-20 12:04:00,,0819.0,5.00,0.00,22.4,22.0,00.0,31.3,24.1,05.7,0000.0,0001.28,0000.59,0000.42
2022-02-20 12:05:00,,0818.9,5.00,0.00,22.3,21.9,00.0,31.3,24.0,05.9,0000.0,0001.09,0000.58,0000.42
2022-02-20 12:06:00,,0818.8,5.01,0.00,22.3,21.8,00.0,31.3,24.0,05.7,0000.0,0000.94,0000.59,0000.43
2022-02-20 12:07:00,,0818.8,5.00,0.00,22.3,21.7,00.0,31.3,24.0,05.6,0000.0,0000.95,0000.60,0000.43
2022-02-20 12:08:00,,0818.8,4.99,0.00,22.3,21.6,00.0,31.3,24.0,05.9,0000.0,0000.93,0000.59,0000.43
2022-02-20 12:09:00,,0818.8,5.00,0.00,22.3,21.6,00.0,31.3,24.0,06.1,0000.0,0000.85,0000.57,0000.44
2022-02-20 12:10:00,,0818.8,5.01,0.00,22.2,21.6,00.0,31.3,23.9,06.1,0000.0,0000.80,0000.56,0000.44
2022-02-20 12:11:00,,0818.8,5.00,0.00,22.2,21.5,00.0,31.3,24.0,06.0,0000.0,0000.80,0000.56,0000.44
2022-02-20 12:12:00,,0818.8,4.99,0.00,22.2,21.4,00.0,31.3,23.9,06.0,0000.0,0000.74,0000.53,0000.43
2022-02-20 12:13:00,,0818.8,5.00,0.00,22.2,21.4,00.0,31.3,23.9,06.2,0000.0,0000.68,0000.51,0000.43
2022-02-20 12:14:00,,0818.8,5.01,0.00,22.2,21.3,00.0,31.3,23.9,06.6,0000.0,0000.73,0000.52,0000.44
2022-02-20 12:15:00,,0818.8,4.99,0.00,22.2,21.3,00.0,31.2,23.9,06.2,0000.0,0000.82,0000.54,0000.44
2022-02-20 12:16:00,,0818.8,5.01,0.00,22.2,21.2,00.0,31.2,23.9,05.9,0000.0,0000.86,0000.57,0000.45
2022-02-20 12:17:00,,0818.8,4.99,0.00,22.1,21.2,00.0,31.2,23.9,05.6,0000.0,0000.85,0000.56,0000.45
2022-02-20 12:18:00,,0818.8,5.00,0.00,22.1,21.2,00.0,31.2,23.8,05.5,0000.0,0000.82,0000.55,0000.45
2022-02-20 12:19:00,,0818.8,5.02,0.00,22.1,21.2,00.0,31.2,23.7,05.6,0000.0,0000.86,0000.57,0000.45
2022-02-20 12:20:00,,0818.8,4.99,0.00,22.1,21.2,00.0,31.2,23.7,05.7,0000.0,0000.93,0000.59,0000.45
2022-02-20 12:21:00,,0818.7,4.99,0.00,22.0,21.2,00.0,31.2,23.7,05.7,0000.0,0000.96,0000.59,0000.45
2022-02-20 12:22:00,,0818.7,5.02,0.00,22.0,21.2,00.0,31.2,23.7,05.8,0000.0,0000.99,0000.61,0000.45
2022-02-20 12:23:00,,0818.5,4.99,0.00,22.0,21.1,00.0,31.1,23.7,05.9,0000.0,0001.02,0000.61,0000.45
2022-02-20 12:24:00,,0818.4,5.01,0.00,22.0,21.1,00.0,31.1,23.6,06.0,0000.0,0001.07,0000.64,0000.46
2022-02-20 12:25:00,,0818.4,4.99,0.00,22.0,21.2,00.0,31.1,23.7,05.6,0000.0,0000.95,0000.60,0000.45
2022-02-20 12:26:00,,0818.3,5.00,0.00,22.0,21.1,00.0,31.1,23.6,05.8,0000.0,0000.85,0000.56,0000.44
2022-02-20 12:27:00,,0818.4,5.01,0.00,22.0,21.2,00.0,31.1,23.7,05.8,0000.0,0000.81,0000.54,0000.44
2022-02-20 12:28:00,,0818.4,5.00,0.00,22.1,21.9,00.0,31.1,23.9,05.8,0000.0,0000.77,0000.52,0000.43
2022-02-20 12:29:00,,0818.6,5.00,0.00,22.2,22.8,00.0,31.2,24.2,05.8,0000.0,0000.76,0000.52,0000.43
2022-02-20 12:30:00,,0818.8,4.99,0.00,22.3,23.1,00.0,31.2,24.4,06.0,0000.0,0000.73,0000.51,0000.43
2022-02-20 12:31:00,,0818.7,5.01,0.00,22.4,22.9,00.0,31.2,24.3,06.1,0000.0,0000.70,0000.50,0000.43
2022-02-20 12:32:00,,0818.8,5.01,0.00,22.4,22.6,00.0,31.2,24.3,06.2,0000.0,0000.93,0000.51,0000.44
2022-02-20 12:33:00,,0818.8,5.00,0.00,22.4,22.4,00.0,31.2,24.2,06.0,0000.0,0001.10,0000.53,0000.44
2022-02-20 12:34:00,,0818.8,5.00,0.00,22.4,22.2,00.0,31.3,24.1,06.1,0000.0,0001.23,0000.52,0000.44
2022-02-20 12:35:00,,0818.8,5.00,0.00,22.4,22.1,00.0,31.3,24.1,06.0,0000.0,0001.91,0000.51,0000.43
2022-02-20 12:36:00,,0818.8,5.00,0.00,22.3,21.9,00.0,31.3,24.1,06.2,0000.0,0001.91,0000.51,0000.44
2022-02-20 12:37:00,,0818.9,5.00,0.00,22.3,21.8,00.0,31.3,24.0,06.1,0000.0,0002.12,0000.56,0000.45
2022-02-20 12:38:00,,0819.0,4.99,0.00,22.3,21.8,00.0,31.3,24.0,06.0,0000.0,0002.30,0000.57,0000.45
2022-02-20 12:39:00,,0818.9,4.99,0.00,22.3,21.7,00.0,31.3,24.0,05.9,0000.0,0002.33,0000.59,0000.45
2022-02-20 12:40:00,,0819.0,5.00,0.00,22.2,21.6,00.0,31.3,23.9,06.0,0000.0,0002.38,0000.62,0000.46
2022-02-20 12:41:00,,0818.9,5.01,0.00,22.2,21.6,00.0,31.3,24.0,06.2,0000.0,0002.45,0000.62,0000.46
2022-02-20 12:42:00,,0819.0,5.00,0.00,22.2,21.6,00.0,31.3,23.9,06.3,0000.0,0002.46,0000.62,0000.46
2022-02-20 12:43:00,,0819.0,5.01,0.00,22.2,21.6,00.0,31.3,23.9,06.2,0000.0,0002.21,0000.61,0000.46
2022-02-20 12:44:00,,0819.0,4.99,0.00,22.2,21.5,00.0,31.3,23.9,06.3,0000.0,0002.10,0000.60,0000.46
2022-02-20 12:45:00,,0819.0,4.99,0.00,22.2,21.5,00.0,31.3,24.0,06.1,0000.0,0002.21,0000.61,0000.46
2022-02-20 12:46:00,,0819.0,4.99,0.00,22.2,21.5,00.0,31.2,23.9,06.1,0000.0,0002.54,0000.63,0000.46
2022-02-20 12:47:00,,0819.1,5.01,0.00,22.2,21.5,00.0,31.2,23.9,06.2,0000.0,0002.60,0000.65,0000.46
2022-02-20 12:48:00,,0819.0,4.99,0.00,22.1,21.4,00.0,31.2,23.9,06.2,0000.0,0002.43,0000.64,0000.45
2022-02-20 12:49:00,,0819.0,5.00,0.00,22.1,21.4,00.0,31.2,23.8,06.3,0000.0,0002.32,0000.64,0000.46
2022-02-20 12:50:00,,0819.0,4.98,0.00,22.1,21.3,00.0,31.2,23.8,06.1,0000.0,0002.36,0000.65,0000.46
2022-02-20 12:51:00,,0818.9,5.02,0.00,22.0,21.3,00.0,31.2,23.7,06.0,0000.0,0002.32,0000.62,0000.45
2022-02-20 12:52:00,,0818.9,5.00,0.00,22.0,21.3,00.0,31.2,23.7,05.9,0000.0,0002.27,0000.62,0000.45
2022-02-20 12:53:00,,0819.0,4.99,0.00,22.0,21.2,00.0,31.1,23.7,06.1,0000.0,0002.25,0000.63,0000.44
2022-02-20 12:54:00,,0818.9,5.01,0.00,22.0,21.2,00.0,31.1,23.7,06.0,0000.0,0002.21,0000.61,0000.44
2022-02-20 12:55:00,,0819.0,4.99,0.00,22.0,21.1,00.0,31.1,23.6,05.8,0000.0,0002.23,0000.63,0000.44
2022-02-20 12:56:00,,0819.0,5.00,0.00,21.9,21.1,00.0,31.1,23.6,06.0,0000.0,0002.35,0000.65,0000.44
2022-02-20 12:57:00,,0818.9,5.02,0.00,21.9,21.1,00.0,31.1,23.6,06.1,0000.0,0001.21,0000.64,0000.44
2022-02-20 12:58:00,,0818.9,4.99,0.00,21.9,21.1,00.0,31.0,23.5,06.0,0000.0,0001.15,0000.61,0000.44
2022-02-20 12:59:00,,0818.9,5.00,0.00,21.8,21.1,00.0,31.0,23.5,05.8,0000.0,0001.11,0000.59,0000.43
